Time,TemperatureF,DewpointF,PressureIn,WindDirection,WindDirectionDegrees,WindSpeedMPH,WindSpeedGustMPH,Humidity,HourlyPrecipIn,Conditions,Clouds,dailyrainin,SoftwareType,DateUTC
2013-08-05 00:01:00,69.9,50.0,29.82,West,259,0.0,2.0,49,0.00,,,0.00,weatherlink.com 1.10,2013-08-05 06:01:00,
2013-08-05 00:16:00,68.9,50.0,29.82,West,259,0.0,0.0,52,0.00,,,0.00,weatherlink.com 1.10,2013-08-05 06:16:00,
2013-08-05 00:30:00,67.4,52.0,29.82,West,259,0.0,0.0,58,0.00,,,0.00,weatherlink.com 1.10,2013-08-05 06:30:00,
2013-08-05 00:45:00,66.2,50.0,29.81,West,259,0.0,1.0,56,0.00,,,0.00,weatherlink.com 1.10,2013-08-05 06:45:00,
2013-08-05 01:01:00,66.2,48.0,29.80,WSW,254,0.0,1.0,52,0.00,,,0.00,weatherlink.com 1.10,2013-08-05 07:01:00,
2013-08-05 01:15:00,67.7,48.0,29.79,SSW,209,0.0,1.0,49,0.00,,,0.00,weatherlink.com 1.10,2013-08-05 07:15:00,
2013-08-05 01:30:00,68.1,48.0,29.78,SSW,209,0.0,2.0,49,0.00,,,0.00,weatherlink.com 1.10,2013-08-05 07:30:00,
2013-08-05 01:46:00,67.7,48.0,29.78,SSW,209,0.0,0.0,50,0.00,,,0.00,weatherlink.com 1.10,2013-08-05 07:46:00,
2013-08-05 02:01:00,66.2,49.0,29.78,SSW,209,0.0,0.0,54,0.00,,,0.00,weatherlink.com 1.10,2013-08-05 08:01:00,
2013-08-05 02:16:00,64.7,49.0,29.78,SSW,209,0.0,0.0,57,0.00,,,0.00,weatherlink.com 1.10,2013-08-05 08:16:00,
2013-08-05 02:31:00,63.2,49.0,29.77,SSW,209,0.0,0.0,60,0.00,,,0.00,weatherlink.com 1.10,2013-08-05 08:31:00,
2013-08-05 03:46:00,61.4,49.0,29.74,SSW,209,0.0,3.0,63,0.00,,,0.00,weatherlink.com 1.10,2013-08-05 09:46:00,
2013-08-05 04:01:00,61.1,48.0,29.74,SSW,209,0.0,1.0,63,0.00,,,0.00,weatherlink.com 1.10,2013-08-05 10:01:00,
2013-08-05 04:16:00,60.9,49.0,29.73,SSW,209,0.0,0.0,64,0.00,,,0.00,weatherlink.com 1.10,2013-08-05 10:16:00,
2013-08-05 04:46:00,59.5,49.0,29.73,SSW,209,0.0,0.0,69,0.00,,,0.00,weatherlink.com 1.10,2013-08-05 10:46:00,
2013-08-05 05:16:00,58.4,50.0,29.74,SSW,209,0.0,1.0,73,0.00,,,0.00,weatherlink.com 1.10,2013-08-05 11:16:00,
2013-08-05 05:46:00,57.4,50.0,29.74,SSW,209,0.0,0.0,76,0.00,,,0.00,weatherlink.com 1.10,2013-08-05 11:46:00,
2013-08-05 06:01:00,57.3,51.0,29.75,SSW,209,0.0,1.0,78,0.00,,,0.00,weatherlink.com 1.10,2013-08-05 12:01:00,
2013-08-05 06:17:00,57.1,51.0,29.74,SSW,209,0.0,1.0,79,0.00,,,0.00,weatherlink.com 1.10,2013-08-05 12:17:00,
2013-08-05 06:32:00,57.3,51.0,29.75,SSW,209,0.0,0.0,79,0.00,,,0.00,weatherlink.com 1.10,2013-08-05 12:32:00,
2013-08-05 06:46:00,58.1,51.0,29.75,SSW,209,0.0,1.0,78,0.00,,,0.00,weatherlink.com 1.10,2013-08-05 12:46:00,
2013-08-05 07:01:00,60.6,53.0,29.76,SSW,209,0.0,0.0,75,0.00,,,0.00,weatherlink.com 1.10,2013-08-05 13:01:00,
2013-08-05 07:17:00,62.5,54.0,29.77,SSW,209,0.0,0.0,73,0.00,,,0.00,weatherlink.com 1.10,2013-08-05 13:17:00,
2013-08-05 07:32:00,64.0,54.0,29.77,SSW,209,1.0,1.0,70,0.00,,,0.00,weatherlink.com 1.10,2013-08-05 13:32:00,
2013-08-05 08:01:00,66.8,54.0,29.78,SSW,209,0.0,0.0,64,0.00,,,0.00,weatherlink.com 1.10,2013-08-05 14:01:00,
2013-08-05 08:16:00,68.9,52.0,29.78,SSW,209,0.0,0.0,56,0.00,,,0.00,weatherlink.com 1.10,2013-08-05 14:16:00,
2013-08-05 09:02:00,73.1,52.0,29.78,East,90,0.0,0.0,47,0.00,,,0.00,weatherlink.com 1.10,2013-08-05 15:02:00,
2013-08-05 09:17:00,74.9,51.0,29.78,East,90,0.0,0.0,43,0.00,,,0.00,weatherlink.com 1.10,2013-08-05 15:17:00,
2013-08-05 09:32:00,76.7,53.0,29.78,East,90,0.0,1.0,44,0.00,,,0.00,weatherlink.com 1.10,2013-08-05 15:32:00,
2013-08-05 09:47:00,79.2,51.0,29.78,East,90,0.0,1.0,37,0.00,,,0.00,weatherlink.com 1.10,2013-08-05 15:47:00,
2013-08-05 10:02:00,81.2,49.0,29.78,East,90,0.0,2.0,32,0.00,,,0.00,weatherlink.com 1.10,2013-08-05 16:02:00,
2013-08-05 10:17:00,82.4,51.0,29.78,East,90,0.0,3.0,33,0.00,,,0.00,weatherlink.com 1.10,2013-08-05 16:17:00,
2013-08-05 10:47:00,82.4,48.0,29.78,NNE,19,1.0,5.0,30,0.00,,,0.00,weatherlink.com 1.10,2013-08-05 16:47:00,
2013-08-05 11:17:00,82.3,50.0,29.79,NE,45,2.0,8.0,33,0.00,,,0.00,weatherlink.com 1.10,2013-08-05 17:17:00,
2013-08-05 11:32:00,82.5,48.0,29.79,NNE,32,2.0,7.0,30,0.00,,,0.00,weatherlink.com 1.10,2013-08-05 17:32:00,
2013-08-05 12:02:00,83.4,46.0,29.79,NE,34,1.0,6.0,27,0.00,,,0.00,weatherlink.com 1.10,2013-08-05 18:02:00,
2013-08-05 12:17:00,83.6,47.0,29.79,NE,49,2.0,9.0,28,0.00,,,0.00,weatherlink.com 1.10,2013-08-05 18:17:00,
2013-08-05 12:47:00,84.4,47.0,29.78,NE,41,3.0,6.0,27,0.00,,,0.00,weatherlink.com 1.10,2013-08-05 18:47:00,
2013-08-05 13:02:00,83.6,46.0,29.77,North,5,0.0,5.0,27,0.00,,,0.00,weatherlink.com 1.10,2013-08-05 19:02:00,
2013-08-05 13:17:00,84.7,47.0,29.77,NE,53,2.0,7.0,27,0.00,,,0.00,weatherlink.com 1.10,2013-08-05 19:17:00,
2013-08-05 13:32:00,85.0,46.0,29.76,SSE,165,2.0,3.0,26,0.00,,,0.00,weatherlink.com 1.10,2013-08-05 19:32:00,
2013-08-05 13:47:00,84.1,49.0,29.76,SE,127,0.0,1.0,29,0.00,,,0.00,weatherlink.com 1.10,2013-08-05 19:47:00,
2013-08-05 14:02:00,84.0,46.0,29.76,East,90,0.0,2.0,26,0.00,,,0.00,weatherlink.com 1.10,2013-08-05 20:02:00,
2013-08-05 14:17:00,82.8,48.0,29.76,NNE,25,0.0,5.0,30,0.00,,,0.00,weatherlink.com 1.10,2013-08-05 20:17:00,
2013-08-05 14:33:00,82.2,50.0,29.75,NNW,334,0.0,2.0,33,0.00,,,0.00,weatherlink.com 1.10,2013-08-05 20:33:00,
2013-08-05 14:48:00,81.8,51.0,29.74,North,5,0.0,2.0,34,0.00,,,0.00,weatherlink.com 1.10,2013-08-05 20:48:00,
2013-08-05 15:03:00,81.8,51.0,29.74,NNW,346,0.0,3.0,34,0.00,,,0.00,weatherlink.com 1.10,2013-08-05 21:03:00,
2013-08-05 15:18:00,81.6,50.0,29.74,NW,311,2.0,4.0,33,0.00,,,0.00,weatherlink.com 1.10,2013-08-05 21:18:00,
2013-08-05 15:33:00,81.5,52.0,29.74,NW,311,0.0,1.0,36,0.00,,,0.00,weatherlink.com 1.10,2013-08-05 21:33:00,
2013-08-05 15:48:00,81.6,51.0,29.74,NW,311,0.0,1.0,35,0.00,,,0.00,weatherlink.com 1.10,2013-08-05 21:48:00,
2013-08-05 16:03:00,81.3,51.0,29.74,NW,309,1.0,7.0,35,0.00,,,0.00,weatherlink.com 1.10,2013-08-05 22:03:00,
2013-08-05 16:18:00,81.0,48.0,29.74,WNW,291,4.0,14.0,32,0.00,,,0.00,weatherlink.com 1.10,2013-08-05 22:18:00,
2013-08-05 16:33:00,79.5,49.0,29.74,WNW,289,3.0,13.0,34,0.00,,,0.00,weatherlink.com 1.10,2013-08-05 22:33:00,
2013-08-05 16:48:00,79.1,48.0,29.74,West,261,3.0,9.0,34,0.00,,,0.00,weatherlink.com 1.10,2013-08-05 22:48:00,
2013-08-05 17:03:00,78.6,49.0,29.75,NW,304,1.0,9.0,35,0.00,,,0.00,weatherlink.com 1.10,2013-08-05 23:03:00,
2013-08-05 17:18:00,78.0,48.0,29.75,West,281,0.0,8.0,35,0.00,,,0.00,weatherlink.com 1.10,2013-08-05 23:18:00,
2013-08-05 17:33:00,77.5,48.0,29.74,NE,44,0.0,8.0,36,0.00,,,0.00,weatherlink.com 1.10,2013-08-05 23:33:00,
2013-08-05 17:48:00,76.8,49.0,29.75,WNW,294,2.0,7.0,37,0.00,,,0.00,weatherlink.com 1.10,2013-08-05 23:48:00,
2013-08-05 18:03:00,76.6,48.0,29.75,WNW,296,2.0,2.0,37,0.00,,,0.00,weatherlink.com 1.10,2013-08-06 00:03:00,
2013-08-05 18:18:00,76.4,48.0,29.74,NE,40,0.0,2.0,37,0.00,,,0.00,weatherlink.com 1.10,2013-08-06 00:18:00,
2013-08-05 18:48:00,76.4,51.0,29.75,ENE,67,0.0,2.0,41,0.00,,,0.00,weatherlink.com 1.10,2013-08-06 00:48:00,
2013-08-05 19:03:00,75.3,51.0,29.75,East,84,0.0,9.0,43,0.00,,,0.00,weatherlink.com 1.10,2013-08-06 01:03:00,
2013-08-05 19:18:00,73.7,50.0,29.76,NNE,30,2.0,10.0,44,0.00,,,0.00,weatherlink.com 1.10,2013-08-06 01:18:00,
2013-08-05 19:33:00,72.8,51.0,29.77,ENE,63,0.0,7.0,47,0.00,,,0.00,weatherlink.com 1.10,2013-08-06 01:33:00,
2013-08-05 19:48:00,72.2,52.0,29.78,ENE,60,0.0,3.0,49,0.00,,,0.00,weatherlink.com 1.10,2013-08-06 01:48:00,
2013-08-05 20:18:00,70.1,58.0,29.79,ENE,76,0.0,0.0,65,0.00,,,0.00,weatherlink.com 1.10,2013-08-06 02:18:00,
2013-08-05 20:33:00,68.2,60.0,29.79,ENE,76,0.0,0.0,75,0.00,,,0.00,weatherlink.com 1.10,2013-08-06 02:33:00,
2013-08-05 21:03:00,66.2,60.0,29.77,ENE,76,0.0,0.0,80,0.00,,,0.00,weatherlink.com 1.10,2013-08-06 03:03:00,
2013-08-05 21:18:00,65.6,60.0,29.78,ENE,76,0.0,0.0,81,0.00,,,0.00,weatherlink.com 1.10,2013-08-06 03:18:00,
2013-08-05 21:33:00,65.2,60.0,29.77,ENE,76,0.0,0.0,82,0.00,,,0.00,weatherlink.com 1.10,2013-08-06 03:33:00,
2013-08-05 21:48:00,64.6,57.0,29.77,ENE,76,0.0,2.0,75,0.00,,,0.00,weatherlink.com 1.10,2013-08-06 03:48:00,
2013-08-05 22:03:00,64.7,55.0,29.77,ENE,76,0.0,0.0,72,0.00,,,0.00,weatherlink.com 1.10,2013-08-06 04:03:00,
2013-08-05 22:18:00,64.4,56.0,29.77,ENE,76,0.0,0.0,74,0.00,,,0.00,weatherlink.com 1.10,2013-08-06 04:18:00,
2013-08-05 22:33:00,63.9,55.0,29.77,ENE,76,0.0,0.0,73,0.00,,,0.00,weatherlink.com 1.10,2013-08-06 04:33:00,
2013-08-05 22:48:00,63.2,55.0,29.77,ENE,76,0.0,0.0,75,0.00,,,0.00,weatherlink.com 1.10,2013-08-06 04:48:00,
2013-08-05 23:03:00,62.4,54.0,29.76,ENE,76,0.0,0.0,75,0.00,,,0.00,weatherlink.com 1.10,2013-08-06 05:03:00,
2013-08-05 23:18:00,62.4,54.0,29.76,ENE,76,0.0,1.0,73,0.00,,,0.00,weatherlink.com 1.10,2013-08-06 05:18:00,
2013-08-05 23:33:00,64.1,53.0,29.75,South,189,0.0,2.0,67,0.00,,,0.00,weatherlink.com 1.10,2013-08-06 05:33:00,
2013-08-05 23:48:00,65.6,52.0,29.74,WSW,243,0.0,2.0,62,0.00,,,0.00,weatherlink.com 1.10,2013-08-06 05:48:00,